Year,Month,Day,Hour,Minute,Value (Times are PST for temperature in C)
2010,03,31,00,00,1.50
2010,03,31,00,01,1.50
2010,03,31,00,02,1.40
2010,03,31,00,03,1.40
2010,03,31,00,04,1.40
2010,03,31,00,05,1.40
2010,03,31,00,06,1.30
2010,03,31,00,07,1.30
2010,03,31,00,08,1.40
2010,03,31,00,09,1.40
2010,03,31,00,10,1.40
2010,03,31,00,11,1.40
2010,03,31,00,12,1.50
2010,03,31,00,13,1.50
2010,03,31,00,14,1.50
2010,03,31,00,15,1.50
2010,03,31,00,16,1.50
2010,03,31,00,17,1.50
2010,03,31,00,18,1.40
2010,03,31,00,19,1.40
2010,03,31,00,20,1.40
2010,03,31,00,21,1.40
2010,03,31,00,22,1.40
2010,03,31,00,23,1.40
2010,03,31,00,24,1.40
2010,03,31,00,25,1.40
2010,03,31,00,26,1.40
2010,03,31,00,27,1.40
2010,03,31,00,28,1.40
2010,03,31,00,29,1.40
2010,03,31,00,30,1.40
2010,03,31,00,31,1.40
2010,03,31,00,32,1.40
2010,03,31,00,33,1.40
2010,03,31,00,34,1.40
2010,03,31,00,35,1.30
2010,03,31,00,36,1.30
2010,03,31,00,37,1.30
2010,03,31,00,38,1.30
2010,03,31,00,39,1.30
2010,03,31,00,40,1.30
2010,03,31,00,41,1.30
2010,03,31,00,42,1.30
2010,03,31,00,43,1.30
2010,03,31,00,44,1.20
2010,03,31,00,45,1.20
2010,03,31,00,46,1.10
2010,03,31,00,47,1.00
2010,03,31,00,48,1.00
2010,03,31,00,49,0.90
2010,03,31,00,50,0.90
2010,03,31,00,51,0.80
2010,03,31,00,52,0.80
2010,03,31,00,53,0.80
2010,03,31,00,54,0.70
2010,03,31,00,55,0.70
2010,03,31,00,56,0.70
2010,03,31,00,57,0.70
2010,03,31,00,58,0.70
2010,03,31,00,59,0.70
2010,03,31,01,00,0.70
2010,03,31,01,01,0.70
2010,03,31,01,02,0.70
2010,03,31,01,03,0.70
2010,03,31,01,04,0.60
2010,03,31,01,05,0.60
2010,03,31,01,06,0.60
2010,03,31,01,07,0.60
2010,03,31,01,08,0.60
2010,03,31,01,09,0.60
2010,03,31,01,10,0.60
2010,03,31,01,11,0.60
2010,03,31,01,12,0.60
2010,03,31,01,13,0.60
2010,03,31,01,14,0.60
2010,03,31,01,15,0.60
2010,03,31,01,16,0.50
2010,03,31,01,17,0.50
2010,03,31,01,18,0.40
2010,03,31,01,19,0.40
2010,03,31,01,20,0.40
2010,03,31,01,21,0.30
2010,03,31,01,22,0.30
2010,03,31,01,23,0.30
2010,03,31,01,24,0.30
2010,03,31,01,25,0.30
2010,03,31,01,26,0.30
2010,03,31,01,27,0.30
2010,03,31,01,28,0.30
2010,03,31,01,29,0.30
2010,03,31,01,30,0.30
2010,03,31,01,31,0.30
2010,03,31,01,32,0.30
2010,03,31,01,33,0.30
2010,03,31,01,34,0.30
2010,03,31,01,35,0.30
2010,03,31,01,36,0.30
2010,03,31,01,37,0.30
2010,03,31,01,38,0.30
2010,03,31,01,39,0.30
2010,03,31,01,40,0.30
2010,03,31,01,41,0.30
2010,03,31,01,42,0.40
2010,03,31,01,43,0.40
2010,03,31,01,44,0.30
2010,03,31,01,45,0.30
2010,03,31,01,46,0.30
2010,03,31,01,47,0.30
2010,03,31,01,48,0.30
2010,03,31,01,49,0.30
2010,03,31,01,50,0.20
2010,03,31,01,51,0.20
2010,03,31,01,52,0.20
2010,03,31,01,53,0.10
2010,03,31,01,54,0.10
2010,03,31,01,55,0.10
2010,03,31,01,56,0.10
2010,03,31,01,57,0.10
2010,03,31,01,58,0.10
2010,03,31,01,59,0.10
2010,03,31,02,00,0.10
2010,03,31,02,01,0.10
2010,03,31,02,02,0.10
2010,03,31,02,03,0.10
2010,03,31,02,04,0.10
2010,03,31,02,05,0.10
2010,03,31,02,06,0.10
2010,03,31,02,07,0.10
2010,03,31,02,08,0.10
2010,03,31,02,09,0.10
2010,03,31,02,10,0.00
2010,03,31,02,11,0.00
2010,03,31,02,12,0.00
2010,03,31,02,13,-0.10
2010,03,31,02,14,-0.10
2010,03,31,02,15,-0.10
2010,03,31,02,16,-0.10
2010,03,31,02,17,-0.20
2010,03,31,02,18,-0.20
2010,03,31,02,19,-0.20
2010,03,31,02,20,-0.20
2010,03,31,02,21,-0.30
2010,03,31,02,22,-0.30
2010,03,31,02,23,-0.30
2010,03,31,02,24,-0.30
2010,03,31,02,25,-0.40
2010,03,31,02,26,-0.40
2010,03,31,02,27,-0.40
2010,03,31,02,28,-0.40
2010,03,31,02,29,-0.40
2010,03,31,02,30,-0.40
2010,03,31,02,31,-0.40
2010,03,31,02,32,-0.40
2010,03,31,02,33,-0.40
2010,03,31,02,34,-0.40
2010,03,31,02,35,-0.50
2010,03,31,02,36,-0.40
2010,03,31,02,37,-0.40
2010,03,31,02,38,-0.40
2010,03,31,02,39,-0.40
2010,03,31,02,40,-0.40
2010,03,31,02,41,-0.40
2010,03,31,02,42,-0.40
2010,03,31,02,43,-0.40
2010,03,31,02,44,-0.40
2010,03,31,02,45,-0.40
2010,03,31,02,46,-0.50
2010,03,31,02,47,-0.40
2010,03,31,02,48,-0.40
2010,03,31,02,49,-0.40
2010,03,31,02,50,-0.40
2010,03,31,02,51,-0.40
2010,03,31,02,52,-0.40
2010,03,31,02,53,-0.40
2010,03,31,02,54,-0.40
2010,03,31,02,55,-0.40
2010,03,31,02,56,-0.40
2010,03,31,02,57,-0.50
2010,03,31,02,58,-0.50
2010,03,31,02,59,-0.50
2010,03,31,03,00,-0.50
2010,03,31,03,01,-0.60
2010,03,31,03,02,-0.60
2010,03,31,03,03,-0.60
2010,03,31,03,04,-0.60
2010,03,31,03,05,-0.60
2010,03,31,03,06,-0.60
2010,03,31,03,07,-0.70
2010,03,31,03,08,-0.70
2010,03,31,03,09,-0.70
2010,03,31,03,10,-0.70
2010,03,31,03,11,-0.70
2010,03,31,03,12,-0.70
2010,03,31,03,13,-0.70
2010,03,31,03,14,-0.70
2010,03,31,03,15,-0.70
2010,03,31,03,16,-0.70
2010,03,31,03,17,-0.70
2010,03,31,03,18,-0.70
2010,03,31,03,19,-0.70
2010,03,31,03,20,-0.70
2010,03,31,03,21,-0.70
2010,03,31,03,22,-0.70
2010,03,31,03,23,-0.70
2010,03,31,03,24,-0.70
2010,03,31,03,25,-0.70
2010,03,31,03,26,-0.70
2010,03,31,03,27,-0.70
2010,03,31,03,28,-0.80
2010,03,31,03,29,-0.80
2010,03,31,03,30,-0.80
2010,03,31,03,31,-0.80
2010,03,31,03,32,-0.90
2010,03,31,03,33,-0.90
2010,03,31,03,34,-0.90
2010,03,31,03,35,-0.90
2010,03,31,03,36,-0.90
2010,03,31,03,37,-0.90
2010,03,31,03,38,-0.90
2010,03,31,03,39,-0.80
2010,03,31,03,40,-0.80
2010,03,31,03,41,-0.80
2010,03,31,03,42,-0.80
2010,03,31,03,43,-0.80
2010,03,31,03,44,-0.80
2010,03,31,03,45,-0.90
2010,03,31,03,46,-0.90
2010,03,31,03,47,-0.90
2010,03,31,03,48,-0.90
2010,03,31,03,49,-0.90
2010,03,31,03,50,-0.90
2010,03,31,03,51,-0.90
2010,03,31,03,52,-0.90
2010,03,31,03,53,-0.90
2010,03,31,03,54,-0.90
2010,03,31,03,55,-0.90
2010,03,31,03,56,-0.90
2010,03,31,03,57,-0.90
2010,03,31,03,58,-0.90
2010,03,31,03,59,-0.80
2010,03,31,04,00,-0.80
2010,03,31,04,01,-0.80
2010,03,31,04,02,-0.80
2010,03,31,04,03,-0.80
2010,03,31,04,06,-0.90
2010,03,31,04,07,-0.90
2010,03,31,04,08,-0.90
2010,03,31,04,09,-0.90
2010,03,31,04,10,-0.90
2010,03,31,04,11,-0.90
2010,03,31,04,12,-0.90
2010,03,31,04,13,-0.90
2010,03,31,04,14,-0.90
2010,03,31,04,15,-0.90
2010,03,31,04,16,-0.90
2010,03,31,04,17,-0.90
2010,03,31,04,18,-0.90
2010,03,31,04,19,-1.00
2010,03,31,04,20,-1.00
2010,03,31,04,21,-1.00
2010,03,31,04,22,-1.00
2010,03,31,04,23,-1.00
2010,03,31,04,24,-0.90
2010,03,31,04,25,-0.90
2010,03,31,04,26,-0.90
2010,03,31,04,27,-0.90
2010,03,31,04,28,-0.90
2010,03,31,04,29,-0.90
2010,03,31,04,30,-0.90
2010,03,31,04,31,-0.90
2010,03,31,04,32,-0.90
2010,03,31,04,33,-0.90
2010,03,31,04,34,-0.90
2010,03,31,04,35,-1.00
2010,03,31,04,36,-1.00
2010,03,31,04,37,-1.00
2010,03,31,04,38,-1.00
2010,03,31,04,39,-1.00
2010,03,31,04,40,-1.00
2010,03,31,04,41,-1.00
2010,03,31,04,42,-1.00
2010,03,31,04,43,-1.00
2010,03,31,04,44,-1.10
2010,03,31,04,45,-1.10
2010,03,31,04,46,-1.10
2010,03,31,04,47,-1.10
2010,03,31,04,48,-1.10
2010,03,31,04,49,-1.10
2010,03,31,04,50,-1.10
2010,03,31,04,51,-1.10
2010,03,31,04,52,-1.10
2010,03,31,04,53,-1.10
2010,03,31,04,54,-1.10
2010,03,31,04,55,-1.10
2010,03,31,04,56,-1.10
2010,03,31,04,57,-1.10
2010,03,31,04,58,-1.10
2010,03,31,04,59,-1.10
2010,03,31,05,00,-1.10
2010,03,31,05,01,-1.00
2010,03,31,05,02,-1.00
2010,03,31,05,03,-1.10
2010,03,31,05,04,-1.10
2010,03,31,05,05,-1.10
2010,03,31,05,06,-1.10
2010,03,31,05,07,-1.10
2010,03,31,05,08,-1.10
2010,03,31,05,09,-1.10
2010,03,31,05,10,-1.10
2010,03,31,05,11,-1.10
2010,03,31,05,12,-1.10
2010,03,31,05,13,-1.20
2010,03,31,05,14,-1.20
2010,03,31,05,15,-1.20
2010,03,31,05,16,-1.10
2010,03,31,05,17,-1.10
2010,03,31,05,18,-1.10
2010,03,31,05,19,-1.10
2010,03,31,05,20,-1.10
2010,03,31,05,21,-1.10
2010,03,31,05,22,-1.10
2010,03,31,05,23,-1.10
2010,03,31,05,24,-1.10
2010,03,31,05,25,-1.10
2010,03,31,05,26,-1.10
2010,03,31,05,27,-1.10
2010,03,31,05,28,-1.10
2010,03,31,05,29,-1.10
2010,03,31,05,30,-1.10
2010,03,31,05,31,-1.10
2010,03,31,05,32,-1.10
2010,03,31,05,33,-1.10
2010,03,31,05,34,-1.10
2010,03,31,05,35,-1.10
2010,03,31,05,36,-1.10
2010,03,31,05,37,-1.20
2010,03,31,05,38,-1.20
2010,03,31,05,39,-1.20
2010,03,31,05,40,-1.20
2010,03,31,05,41,-1.20
2010,03,31,05,42,-1.20
2010,03,31,05,43,-1.20
2010,03,31,05,44,-1.20
2010,03,31,05,45,-1.20
2010,03,31,05,46,-1.30
2010,03,31,05,47,-1.30
2010,03,31,05,48,-1.30
2010,03,31,05,49,-1.30
2010,03,31,05,50,-1.30
2010,03,31,05,51,-1.30
2010,03,31,05,52,-1.30
2010,03,31,05,53,-1.30
2010,03,31,05,54,-1.30
2010,03,31,05,55,-1.30
2010,03,31,05,56,-1.30
2010,03,31,05,57,-1.30
2010,03,31,05,58,-1.30
2010,03,31,05,59,-1.30
2010,03,31,06,00,-1.30
2010,03,31,06,01,-1.20
2010,03,31,06,02,-1.20
2010,03,31,06,03,-1.20
2010,03,31,06,04,-1.20
2010,03,31,06,05,-1.20
2010,03,31,06,06,-1.20
2010,03,31,06,07,-1.20
2010,03,31,06,08,-1.20
2010,03,31,06,09,-1.20
2010,03,31,06,10,-1.20
2010,03,31,06,11,-1.20
2010,03,31,06,12,-1.20
2010,03,31,06,13,-1.20
2010,03,31,06,14,-1.20
2010,03,31,06,15,-1.30
2010,03,31,06,16,-1.30
2010,03,31,06,17,-1.30
2010,03,31,06,18,-1.30
2010,03,31,06,19,-1.30
2010,03,31,06,20,-1.30
2010,03,31,06,21,-1.30
2010,03,31,06,22,-1.30
2010,03,31,06,23,-1.30
2010,03,31,06,24,-1.40
2010,03,31,06,25,-1.40
2010,03,31,06,26,-1.30
2010,03,31,06,27,-1.30
2010,03,31,06,28,-1.30
2010,03,31,06,29,-1.30
2010,03,31,06,30,-1.30
2010,03,31,06,31,-1.30
2010,03,31,06,32,-1.30
2010,03,31,06,33,-1.30
2010,03,31,06,34,-1.30
2010,03,31,06,35,-1.30
2010,03,31,06,36,-1.30
2010,03,31,06,37,-1.30
2010,03,31,06,38,-1.30
2010,03,31,06,39,-1.30
2010,03,31,06,40,-1.30
2010,03,31,06,41,-1.20
2010,03,31,06,42,-1.20
2010,03,31,06,43,-1.20
2010,03,31,06,44,-1.20
2010,03,31,06,45,-1.20
2010,03,31,06,46,-1.20
2010,03,31,06,47,-1.20
2010,03,31,06,48,-1.20
2010,03,31,06,49,-1.20
2010,03,31,06,50,-1.20
2010,03,31,06,51,-1.20
2010,03,31,06,52,-1.20
2010,03,31,06,53,-1.20
2010,03,31,06,54,-1.20
2010,03,31,06,55,-1.20
2010,03,31,06,56,-1.20
2010,03,31,06,57,-1.20
2010,03,31,06,58,-1.20
2010,03,31,06,59,-1.20
2010,03,31,07,00,-1.20
2010,03,31,07,01,-1.20
2010,03,31,07,02,-1.30
2010,03,31,07,03,-1.20
2010,03,31,07,04,-1.20
2010,03,31,07,05,-1.30
2010,03,31,07,06,-1.30
2010,03,31,07,07,-1.30
2010,03,31,07,08,-1.30
2010,03,31,07,09,-1.30
2010,03,31,07,10,-1.30
2010,03,31,07,11,-1.30
2010,03,31,07,12,-1.30
2010,03,31,07,13,-1.30
2010,03,31,07,14,-1.30
2010,03,31,07,15,-1.20
2010,03,31,07,16,-1.20
2010,03,31,07,17,-1.20
2010,03,31,07,18,-1.20
2010,03,31,07,19,-1.10
2010,03,31,07,20,-1.10
2010,03,31,07,21,-1.10
2010,03,31,07,22,-1.10
2010,03,31,07,23,-1.00
2010,03,31,07,24,-1.00
2010,03,31,07,25,-0.90
2010,03,31,07,26,-0.90
2010,03,31,07,27,-0.90
2010,03,31,07,28,-0.80
2010,03,31,07,29,-0.80
2010,03,31,07,30,-0.80
2010,03,31,07,31,-0.80
2010,03,31,07,32,-0.90
2010,03,31,07,33,-0.90
2010,03,31,07,34,-0.90
2010,03,31,07,35,-1.00
2010,03,31,07,36,-1.10
2010,03,31,07,37,-1.10
2010,03,31,07,38,-1.10
2010,03,31,07,39,-1.10
2010,03,31,07,40,-1.00
2010,03,31,07,41,-1.00
2010,03,31,07,42,-1.00
2010,03,31,07,43,-0.90
2010,03,31,07,44,-0.90
2010,03,31,07,45,-0.80
2010,03,31,07,46,-0.80
2010,03,31,07,47,-0.70
2010,03,31,07,48,-0.70
2010,03,31,07,49,-0.70
2010,03,31,07,50,-0.60
2010,03,31,07,51,-0.60
2010,03,31,07,52,-0.60
2010,03,31,07,53,-0.60
2010,03,31,07,54,-0.50
2010,03,31,07,55,-0.50
2010,03,31,07,56,-0.40
2010,03,31,07,57,-0.40
2010,03,31,07,58,-0.30
2010,03,31,07,59,-0.30
2010,03,31,08,00,-0.30
2010,03,31,08,01,-0.20
2010,03,31,08,02,-0.20
2010,03,31,08,03,-0.10
2010,03,31,08,04,-0.10
2010,03,31,08,05,-0.10
2010,03,31,08,06,0.00
2010,03,31,08,07,0.00
2010,03,31,08,08,0.10
2010,03,31,08,09,0.10
2010,03,31,08,10,0.10
2010,03,31,08,11,0.20
2010,03,31,08,12,0.20
2010,03,31,08,13,0.20
2010,03,31,08,14,0.30
2010,03,31,08,15,0.40
2010,03,31,08,16,0.60
2010,03,31,08,17,0.70
2010,03,31,08,18,0.90
2010,03,31,08,19,1.00
2010,03,31,08,20,1.10
2010,03,31,08,21,1.20
2010,03,31,08,22,1.30
2010,03,31,08,23,1.30
2010,03,31,08,24,1.30
2010,03,31,08,25,1.30
2010,03,31,08,26,1.30
2010,03,31,08,27,1.30
2010,03,31,08,28,1.40
2010,03,31,08,29,1.40
2010,03,31,08,30,1.50
2010,03,31,08,31,1.50
2010,03,31,08,32,1.60
2010,03,31,08,33,1.70
2010,03,31,08,34,1.80
2010,03,31,08,35,1.80
2010,03,31,08,36,1.90
2010,03,31,08,37,1.90
2010,03,31,08,38,2.00
2010,03,31,08,39,2.00
2010,03,31,08,40,2.00
2010,03,31,08,41,2.10
2010,03,31,08,42,2.10
2010,03,31,08,43,2.20
2010,03,31,08,44,2.20
2010,03,31,08,45,2.30
2010,03,31,08,46,2.40
2010,03,31,08,47,2.60
2010,03,31,08,48,2.70
2010,03,31,08,49,2.80
2010,03,31,08,50,2.80
2010,03,31,08,51,2.90
2010,03,31,08,52,2.90
2010,03,31,08,53,3.00
2010,03,31,08,54,3.00
2010,03,31,08,55,3.10
2010,03,31,08,56,3.10
2010,03,31,08,57,3.10
2010,03,31,08,58,3.20
2010,03,31,08,59,3.30
2010,03,31,09,00,3.30
2010,03,31,09,01,3.30
2010,03,31,09,02,3.40
2010,03,31,09,03,3.40
2010,03,31,09,04,3.50
2010,03,31,09,05,3.50
2010,03,31,09,06,3.60
2010,03,31,09,07,3.60
2010,03,31,09,08,3.60
2010,03,31,09,09,3.70
2010,03,31,09,10,3.70
2010,03,31,09,11,3.80
2010,03,31,09,12,3.90
2010,03,31,09,13,4.00
2010,03,31,09,14,4.10
2010,03,31,09,15,4.30
2010,03,31,09,16,4.40
2010,03,31,09,17,4.50
2010,03,31,09,18,4.60
2010,03,31,09,19,4.70
2010,03,31,09,20,4.80
2010,03,31,09,21,4.90
2010,03,31,09,22,5.00
2010,03,31,09,23,5.10
2010,03,31,09,24,5.20
2010,03,31,09,25,5.30
2010,03,31,09,26,5.40
2010,03,31,09,27,5.50
2010,03,31,09,28,5.60
2010,03,31,09,29,5.70
2010,03,31,09,30,5.80
2010,03,31,09,31,5.90
2010,03,31,09,32,5.90
2010,03,31,09,33,5.90
2010,03,31,09,34,6.00
2010,03,31,09,35,6.10
2010,03,31,09,36,6.10
2010,03,31,09,37,6.20
2010,03,31,09,38,6.20
2010,03,31,09,39,6.30
2010,03,31,09,40,6.30
2010,03,31,09,41,6.40
2010,03,31,09,42,6.40
2010,03,31,09,43,6.50
2010,03,31,09,44,6.60
2010,03,31,09,45,6.70
2010,03,31,09,46,6.80
2010,03,31,09,47,6.90
2010,03,31,09,48,7.10
2010,03,31,09,49,7.20
2010,03,31,09,50,7.30
2010,03,31,09,51,7.40
2010,03,31,09,52,7.60
2010,03,31,09,53,7.70
2010,03,31,09,54,7.80
2010,03,31,09,55,7.80
2010,03,31,09,56,7.80
2010,03,31,09,57,7.80
2010,03,31,09,58,7.70
2010,03,31,09,59,7.60
2010,03,31,10,00,7.50
2010,03,31,10,01,7.40
2010,03,31,10,02,7.40
2010,03,31,10,03,7.50
2010,03,31,10,04,7.50
2010,03,31,10,05,7.60
2010,03,31,10,06,7.60
2010,03,31,10,07,7.70
2010,03,31,10,08,7.70
2010,03,31,10,09,7.80
2010,03,31,10,10,7.80
2010,03,31,10,11,7.90
2010,03,31,10,12,7.90
2010,03,31,10,13,7.90
2010,03,31,10,14,7.90
2010,03,31,10,15,7.90
2010,03,31,10,16,7.90
2010,03,31,10,17,7.90
2010,03,31,10,18,8.00
2010,03,31,10,19,8.10
2010,03,31,10,20,8.10
2010,03,31,10,21,8.10
2010,03,31,10,22,8.20
2010,03,31,10,23,8.30
2010,03,31,10,24,8.40
2010,03,31,10,25,8.50
2010,03,31,10,26,8.60
2010,03,31,10,27,8.60
2010,03,31,10,28,8.50
2010,03,31,10,29,8.50
2010,03,31,10,30,8.30
2010,03,31,10,31,8.20
2010,03,31,10,32,8.10
2010,03,31,10,33,8.10
2010,03,31,10,34,8.00
2010,03,31,10,35,8.10
2010,03,31,10,36,8.10
2010,03,31,10,37,8.20
2010,03,31,10,38,8.20
2010,03,31,10,39,8.30
2010,03,31,10,40,8.40
2010,03,31,10,41,8.40
2010,03,31,10,42,8.40
2010,03,31,10,43,8.40
2010,03,31,10,44,8.40
2010,03,31,10,45,8.40
2010,03,31,10,46,8.30
2010,03,31,10,47,8.30
2010,03,31,10,48,8.30
2010,03,31,10,49,8.30
2010,03,31,10,50,8.30
2010,03,31,10,51,8.30
2010,03,31,10,52,8.40
2010,03,31,10,53,8.30
2010,03,31,10,54,8.40
2010,03,31,10,55,8.50
2010,03,31,10,56,8.60
2010,03,31,10,57,8.70
2010,03,31,10,58,8.80
2010,03,31,10,59,9.00
2010,03,31,11,00,9.10
2010,03,31,11,01,9.20
2010,03,31,11,02,9.30
2010,03,31,11,03,9.40
2010,03,31,11,04,9.50
2010,03,31,11,05,9.60
2010,03,31,11,06,9.60
2010,03,31,11,07,9.60
2010,03,31,11,08,9.70
2010,03,31,11,09,9.70
2010,03,31,11,10,9.80
2010,03,31,11,11,9.70
2010,03,31,11,12,9.60
2010,03,31,11,13,9.60
2010,03,31,11,14,9.60
2010,03,31,11,15,9.50
2010,03,31,11,16,9.60
2010,03,31,11,17,9.50
2010,03,31,11,18,9.40
2010,03,31,11,19,9.30
2010,03,31,11,20,9.20
2010,03,31,11,21,9.20
2010,03,31,11,22,9.20
2010,03,31,11,23,9.10
2010,03,31,11,24,9.10
2010,03,31,11,25,9.00
2010,03,31,11,26,8.90
2010,03,31,11,27,8.90
2010,03,31,11,28,8.90
2010,03,31,11,29,8.90
2010,03,31,11,30,8.80
2010,03,31,11,31,8.80
2010,03,31,11,32,8.80
2010,03,31,11,33,8.80
2010,03,31,11,34,8.70
2010,03,31,11,35,8.70
2010,03,31,11,36,8.70
2010,03,31,11,37,8.60
2010,03,31,11,38,8.60
2010,03,31,11,39,8.50
2010,03,31,11,40,8.40
2010,03,31,11,41,8.40
2010,03,31,11,42,8.30
2010,03,31,11,43,8.30
2010,03,31,11,44,8.20
2010,03,31,11,45,8.10
2010,03,31,11,46,8.00
2010,03,31,11,47,7.90
2010,03,31,11,48,7.80
2010,03,31,11,49,7.80
2010,03,31,11,50,7.70
2010,03,31,11,51,7.60
2010,03,31,11,52,7.50
2010,03,31,11,53,7.50
2010,03,31,11,54,7.40
2010,03,31,11,55,7.30
2010,03,31,11,56,7.30
2010,03,31,11,57,7.30
2010,03,31,11,58,7.30
2010,03,31,11,59,7.30
2010,03,31,12,00,7.20
2010,03,31,12,01,7.20
2010,03,31,12,02,7.20
2010,03,31,12,03,7.20
2010,03,31,12,04,7.10
2010,03,31,12,05,7.10
2010,03,31,12,06,7.10
2010,03,31,12,07,7.00
2010,03,31,12,08,7.00
2010,03,31,12,09,6.90
2010,03,31,12,10,6.80
2010,03,31,12,11,6.80
2010,03,31,12,12,6.80
2010,03,31,12,13,6.80
2010,03,31,12,14,6.90
2010,03,31,12,15,6.90
2010,03,31,12,16,7.00
2010,03,31,12,17,7.00
2010,03,31,12,18,7.00
2010,03,31,12,19,7.00
2010,03,31,12,20,7.10
2010,03,31,12,21,7.10
2010,03,31,12,22,7.10
2010,03,31,12,23,7.10
2010,03,31,12,24,7.10
2010,03,31,12,25,7.20
2010,03,31,12,26,7.10
2010,03,31,12,27,7.00
2010,03,31,12,28,7.00
2010,03,31,12,29,7.10
2010,03,31,12,30,7.10
2010,03,31,12,31,7.20
2010,03,31,12,32,7.20
2010,03,31,12,33,7.20
2010,03,31,12,34,7.20
2010,03,31,12,35,7.20
2010,03,31,12,36,7.20
2010,03,31,12,37,7.20
2010,03,31,12,38,7.30
2010,03,31,12,39,7.30
2010,03,31,12,40,7.30
2010,03,31,12,41,7.30
2010,03,31,12,42,7.30
2010,03,31,12,43,7.40
2010,03,31,12,44,7.40
2010,03,31,12,45,7.40
2010,03,31,12,46,7.30
2010,03,31,12,47,7.30
2010,03,31,12,48,7.30
2010,03,31,12,49,7.30
2010,03,31,12,50,7.30
2010,03,31,12,51,7.40
2010,03,31,12,52,7.50
2010,03,31,12,53,7.50
2010,03,31,12,54,7.60
2010,03,31,12,55,7.70
2010,03,31,12,56,7.70
2010,03,31,12,57,7.80
2010,03,31,12,58,7.70
2010,03,31,12,59,7.80
2010,03,31,13,00,7.80
2010,03,31,13,01,7.80
2010,03,31,13,02,7.90
2010,03,31,13,03,8.00
2010,03,31,13,04,8.00
2010,03,31,13,05,8.00
2010,03,31,13,06,8.00
2010,03,31,13,07,8.00
2010,03,31,13,08,8.00
2010,03,31,13,09,8.00
2010,03,31,13,10,7.90
2010,03,31,13,11,7.90
2010,03,31,13,12,7.80
2010,03,31,13,13,7.80
2010,03,31,13,14,7.80
2010,03,31,13,15,7.80
2010,03,31,13,16,7.80
2010,03,31,13,17,7.90
2010,03,31,13,18,7.90
2010,03,31,13,19,7.90
2010,03,31,13,20,8.00
2010,03,31,13,21,8.00
2010,03,31,13,22,8.00
2010,03,31,13,23,8.00
2010,03,31,13,24,8.00
2010,03,31,13,25,8.00
2010,03,31,13,26,8.00
2010,03,31,13,27,8.00
2010,03,31,13,28,8.00
2010,03,31,13,29,8.10
2010,03,31,13,30,8.10
2010,03,31,13,31,8.10
2010,03,31,13,32,8.10
2010,03,31,13,33,8.10
2010,03,31,13,34,8.20
2010,03,31,13,35,8.20
2010,03,31,13,36,8.20
2010,03,31,13,37,8.20
2010,03,31,13,38,8.20
2010,03,31,13,39,8.20
2010,03,31,13,40,8.20
2010,03,31,13,41,8.30
2010,03,31,13,42,8.30
2010,03,31,13,43,8.30
2010,03,31,13,44,8.30
2010,03,31,13,45,8.30
2010,03,31,13,46,8.30
2010,03,31,13,47,8.30
2010,03,31,13,48,8.40
2010,03,31,13,49,8.40
2010,03,31,13,50,8.40
2010,03,31,13,51,8.40
2010,03,31,13,52,8.40
2010,03,31,13,53,8.40
2010,03,31,13,54,8.40
2010,03,31,13,55,8.40
2010,03,31,13,56,8.40
2010,03,31,13,57,8.40
2010,03,31,13,58,8.40
2010,03,31,13,59,8.30
2010,03,31,14,00,8.40
2010,03,31,14,01,8.50
2010,03,31,14,02,8.60
2010,03,31,14,03,8.80
2010,03,31,14,04,8.90
2010,03,31,14,05,9.00
2010,03,31,14,06,9.10
2010,03,31,14,07,9.20
2010,03,31,14,08,9.20
2010,03,31,14,09,9.00
2010,03,31,14,10,8.90
2010,03,31,14,11,8.80
2010,03,31,14,12,8.80
2010,03,31,14,13,8.90
2010,03,31,14,14,9.00
2010,03,31,14,15,9.10
2010,03,31,14,16,9.20
2010,03,31,14,17,9.30
2010,03,31,14,18,9.30
2010,03,31,14,19,9.20
2010,03,31,14,20,9.10
2010,03,31,14,21,9.10
2010,03,31,14,22,9.10
2010,03,31,14,23,9.20
2010,03,31,14,24,9.30
2010,03,31,14,25,9.30
2010,03,31,14,26,9.40
2010,03,31,14,27,9.40
2010,03,31,14,28,9.40
2010,03,31,14,29,9.50
2010,03,31,14,30,9.50
2010,03,31,14,31,9.40
2010,03,31,14,32,9.20
2010,03,31,14,33,9.20
2010,03,31,14,34,9.10
2010,03,31,14,35,9.20
2010,03,31,14,36,9.20
2010,03,31,14,37,9.20
2010,03,31,14,38,9.20
2010,03,31,14,39,9.30
2010,03,31,14,40,9.30
2010,03,31,14,41,9.30
2010,03,31,14,42,9.30
2010,03,31,14,43,9.30
2010,03,31,14,44,9.40
2010,03,31,14,45,9.50
2010,03,31,14,46,9.60
2010,03,31,14,47,9.60
2010,03,31,14,48,9.60
2010,03,31,14,49,9.60
2010,03,31,14,50,9.60
2010,03,31,14,51,9.70
2010,03,31,14,52,9.80
2010,03,31,14,53,9.90
2010,03,31,14,54,10.00
2010,03,31,14,55,10.10
2010,03,31,14,56,10.10
2010,03,31,14,57,10.00
2010,03,31,14,58,9.90
2010,03,31,14,59,9.80
2010,03,31,15,00,9.60
2010,03,31,15,01,9.50
2010,03,31,15,02,9.50
2010,03,31,15,03,9.40
2010,03,31,15,04,9.30
2010,03,31,15,05,9.20
2010,03,31,15,06,9.10
2010,03,31,15,07,9.00
2010,03,31,15,08,8.90
2010,03,31,15,09,8.90
2010,03,31,15,10,8.90
2010,03,31,15,11,8.80
2010,03,31,15,12,8.80
2010,03,31,15,13,8.80
2010,03,31,15,14,8.80
2010,03,31,15,15,8.80
2010,03,31,15,16,8.80
2010,03,31,15,17,8.80
2010,03,31,15,18,8.80
2010,03,31,15,19,8.80
2010,03,31,15,20,8.80
2010,03,31,15,21,8.80
2010,03,31,15,22,8.80
2010,03,31,15,23,8.80
2010,03,31,15,24,8.70
2010,03,31,15,25,8.70
2010,03,31,15,26,8.70
2010,03,31,15,27,8.70
2010,03,31,15,28,8.70
2010,03,31,15,29,8.70
2010,03,31,15,30,8.70
2010,03,31,15,31,8.60
2010,03,31,15,32,8.60
2010,03,31,15,33,8.70
2010,03,31,15,34,8.70
2010,03,31,15,35,8.70
2010,03,31,15,36,8.70
2010,03,31,15,37,8.70
2010,03,31,15,38,8.70
2010,03,31,15,39,8.70
2010,03,31,15,40,8.70
2010,03,31,15,41,8.70
2010,03,31,15,42,8.70
2010,03,31,15,43,8.70
2010,03,31,15,44,8.70
2010,03,31,15,45,8.60
2010,03,31,15,46,8.60
2010,03,31,15,47,8.60
2010,03,31,15,48,8.70
2010,03,31,15,49,8.70
2010,03,31,15,50,8.80
2010,03,31,15,51,8.90
2010,03,31,15,52,9.00
2010,03,31,15,53,9.10
2010,03,31,15,54,9.20
2010,03,31,15,55,9.20
2010,03,31,15,56,9.20
2010,03,31,15,57,9.20
2010,03,31,15,58,9.10
2010,03,31,15,59,9.10
2010,03,31,16,00,9.10
2010,03,31,16,01,9.10
2010,03,31,16,02,9.10
2010,03,31,16,03,9.20
2010,03,31,16,04,9.30
2010,03,31,16,05,9.40
2010,03,31,16,06,9.40
2010,03,31,16,07,9.50
2010,03,31,16,08,9.50
2010,03,31,16,09,9.50
2010,03,31,16,10,9.40
2010,03,31,16,11,9.30
2010,03,31,16,12,9.30
2010,03,31,16,13,9.30
2010,03,31,16,14,9.30
2010,03,31,16,15,9.40
2010,03,31,16,16,9.50
2010,03,31,16,17,9.50
2010,03,31,16,18,9.60
2010,03,31,16,19,9.60
2010,03,31,16,20,9.70
2010,03,31,16,21,9.70
2010,03,31,16,22,9.80
2010,03,31,16,23,9.80
2010,03,31,16,24,9.80
2010,03,31,16,25,9.80
2010,03,31,16,26,9.70
2010,03,31,16,27,9.70
2010,03,31,16,28,9.70
2010,03,31,16,29,9.70
2010,03,31,16,30,9.70
2010,03,31,16,31,9.70
2010,03,31,16,32,9.80
2010,03,31,16,33,9.80
2010,03,31,16,34,9.80
2010,03,31,16,35,9.80
2010,03,31,16,36,9.80
2010,03,31,16,37,9.80
2010,03,31,16,38,9.80
2010,03,31,16,39,9.80
2010,03,31,16,40,9.70
2010,03,31,16,41,9.70
2010,03,31,16,42,9.70
2010,03,31,16,43,9.70
2010,03,31,16,44,9.60
2010,03,31,16,45,9.60
2010,03,31,16,46,9.50
2010,03,31,16,47,9.40
2010,03,31,16,48,9.30
2010,03,31,16,49,9.30
2010,03,31,16,50,9.20
2010,03,31,16,51,9.20
2010,03,31,16,52,9.30
2010,03,31,16,53,9.30
2010,03,31,16,54,9.30
2010,03,31,16,55,9.30
2010,03,31,16,56,9.30
2010,03,31,16,57,9.20
2010,03,31,16,58,9.20
2010,03,31,16,59,9.10
2010,03,31,17,00,9.10
2010,03,31,17,01,9.10
2010,03,31,17,02,9.10
2010,03,31,17,03,9.00
2010,03,31,17,04,9.00
2010,03,31,17,05,9.00
2010,03,31,17,06,8.90
2010,03,31,17,07,8.90
2010,03,31,17,08,8.90
2010,03,31,17,09,9.00
2010,03,31,17,10,9.10
2010,03,31,17,11,9.10
2010,03,31,17,12,9.10
2010,03,31,17,13,9.10
2010,03,31,17,14,9.20
2010,03,31,17,15,9.30
2010,03,31,17,16,9.30
2010,03,31,17,17,9.40
2010,03,31,17,18,9.50
2010,03,31,17,19,9.60
2010,03,31,17,20,9.70
2010,03,31,17,21,9.70
2010,03,31,17,22,9.70
2010,03,31,17,23,9.70
2010,03,31,17,24,9.70
2010,03,31,17,25,9.60
2010,03,31,17,26,9.60
2010,03,31,17,27,9.60
2010,03,31,17,28,9.70
2010,03,31,17,29,9.80
2010,03,31,17,30,9.90
2010,03,31,17,31,10.00
2010,03,31,17,32,10.00
2010,03,31,17,33,10.10
2010,03,31,17,34,10.10
2010,03,31,17,35,10.10
2010,03,31,17,36,10.20
2010,03,31,17,37,10.20
2010,03,31,17,38,10.20
2010,03,31,17,39,10.30
2010,03,31,17,40,10.30
2010,03,31,17,41,10.40
2010,03,31,17,42,10.40
2010,03,31,17,43,10.30
2010,03,31,17,44,10.20
2010,03,31,17,45,10.20
2010,03,31,17,46,10.10
2010,03,31,17,47,10.10
2010,03,31,17,48,10.10
2010,03,31,17,49,10.10
2010,03,31,17,50,10.10
2010,03,31,17,51,10.20